sat.trackr.live / text

‹ back to catalog

STARLINK-6338

NORAD 57364 · 2023-099AN

PAYLOAD ACTIVE UNKNOWN

§ Identity

Operator
Country
US
Launch date
2023-07-16
Launch site
AFETR
Launch vehicle
Mass (kg)
RCS (m²)

Purposes: comms

External: N2YO · Heavens-Above · Gunter

§ Orbital elements

Epoch: 2026-05-24T13:05:10.676544Z

Period
94.32 min
Inclination
43.0025°
Eccentricity
0.0001828
Mean motion
15.26745676 rev/d
Perigee alt
484.3 km
Apogee alt
486.8 km
Semi-major
6,863.7 km
B*
3.1332e-5
RAAN
173.0127°
Arg perigee
294.5321°
Mean anomaly
65.5340°
Rev number
15,779

§ Raw data

STARLINK-63381 57364U 23099AN  26144.54526246  .00000581  00000+0  31332-4 0  99982 57364  43.0025 173.0127 0001828 294.5321  65.5340 15.26745676157798

JSON: /api/v1/satellites/57364 · /tle

For live sub-satellite position, see the globe view (requires WebGL).

§ Visibility from observer

Set your observer location to see the next 7 days of passes ≥ 10°. The values pass through the URL so the page stays shareable.

No JS? Fill the form by hand. The geolocation button needs JavaScript.